Time,TemperatureF,DewpointF,PressureIn,WindDirection,WindDirectionDegrees,WindSpeedMPH,WindSpeedGustMPH,Humidity,HourlyPrecipIn,Conditions,Clouds,dailyrainin,SoftwareType,DateUTC
2013-03-15 00:00:00,39.7,28.1,30.16,West,277,3.0,6.0,63,0.00,,SKC,0.00,VWS V13.00,2013-03-15 04:00:00,
2013-03-15 00:05:00,39.9,28.3,30.16,West,265,1.0,5.0,63,0.00,,SKC,0.00,VWS V13.00,2013-03-15 04:05:00,
2013-03-15 00:10:00,40.0,28.4,30.16,WNW,284,0.0,3.0,63,0.00,,SKC,0.00,VWS V13.00,2013-03-15 04:10:00,
2013-03-15 00:15:00,40.2,28.6,30.16,West,274,3.0,3.0,63,0.00,,SKC,0.00,VWS V13.00,2013-03-15 04:15:00,
2013-03-15 00:20:00,40.2,28.6,30.16,WNW,296,2.0,3.0,63,0.00,,SKC,0.00,VWS V13.00,2013-03-15 04:20:00,
2013-03-15 00:25:00,40.2,28.6,30.16,West,278,3.0,4.0,63,0.00,,SKC,0.00,VWS V13.00,2013-03-15 04:25:00,
2013-03-15 00:30:00,40.2,28.6,30.16,WNW,292,1.0,3.0,63,0.00,,SKC,0.00,VWS V13.00,2013-03-15 04:30:00,
2013-03-15 00:35:00,40.1,28.5,30.16,NW,304,1.0,4.0,63,0.00,,SKC,0.00,VWS V13.00,2013-03-15 04:35:00,
2013-03-15 00:40:00,40.0,28.8,30.16,WNW,292,1.0,3.0,64,0.00,,SKC,0.00,VWS V13.00,2013-03-15 04:40:00,
2013-03-15 00:45:00,39.9,28.7,30.16,WNW,290,0.0,4.0,64,0.00,,SKC,0.00,VWS V13.00,2013-03-15 04:45:00,
2013-03-15 00:50:00,39.8,28.6,30.16,WNW,292,0.0,4.0,64,0.00,,SKC,0.00,VWS V13.00,2013-03-15 04:50:00,
2013-03-15 00:55:00,39.7,28.5,30.16,WNW,290,0.0,4.0,64,0.00,,SKC,0.00,VWS V13.00,2013-03-15 04:55:00,
2013-03-15 01:00:00,39.6,28.4,30.16,WNW,285,0.0,6.0,64,0.00,,SKC,0.00,VWS V13.00,2013-03-15 05:00:00,
2013-03-15 01:05:00,39.5,28.4,30.16,WNW,294,4.0,6.0,64,0.00,,SKC,0.00,VWS V13.00,2013-03-15 05:05:00,
2013-03-15 01:10:00,39.5,28.4,30.16,WNW,283,2.0,4.0,64,0.00,,SKC,0.00,VWS V13.00,2013-03-15 05:10:00,
2013-03-15 01:15:00,39.4,28.2,30.16,WNW,300,0.0,3.0,64,0.00,,SKC,0.00,VWS V13.00,2013-03-15 05:15:00,
2013-03-15 01:20:00,39.4,28.2,30.16,WNW,301,2.0,3.0,64,0.00,,SKC,0.00,VWS V13.00,2013-03-15 05:20:00,
2013-03-15 01:25:00,39.4,28.2,30.16,WNW,292,4.0,4.0,64,0.00,,SKC,0.00,VWS V13.00,2013-03-15 05:25:00,
2013-03-15 01:30:00,39.4,28.2,30.16,WNW,286,2.0,5.0,64,0.00,,SKC,0.00,VWS V13.00,2013-03-15 05:30:00,
2013-03-15 01:35:00,39.4,28.2,30.17,WNW,288,0.0,2.0,64,0.00,,SKC,0.00,VWS V13.00,2013-03-15 05:35:00,
2013-03-15 01:40:00,39.5,28.4,30.17,WNW,284,3.0,3.0,64,0.00,,SKC,0.00,VWS V13.00,2013-03-15 05:40:00,
2013-03-15 01:45:00,39.5,28.4,30.17,West,281,2.0,3.0,64,0.00,,SKC,0.00,VWS V13.00,2013-03-15 05:45:00,
2013-03-15 01:50:00,39.5,28.4,30.17,West,280,0.0,5.0,64,0.00,,SKC,0.00,VWS V13.00,2013-03-15 05:50:00,
2013-03-15 01:55:00,39.6,28.4,30.17,WNW,297,3.0,5.0,64,0.00,,SKC,0.00,VWS V13.00,2013-03-15 05:55:00,
2013-03-15 02:00:00,39.7,28.5,30.17,NW,315,1.0,7.0,64,0.00,,SKC,0.00,VWS V13.00,2013-03-15 06:00:00,
2013-03-15 02:05:00,39.9,28.7,30.17,WNW,296,0.0,4.0,64,0.00,,SKC,0.00,VWS V13.00,2013-03-15 06:05:00,
2013-03-15 02:10:00,40.0,28.8,30.17,WSW,256,2.0,6.0,64,0.00,,SKC,0.00,VWS V13.00,2013-03-15 06:10:00,
2013-03-15 02:15:00,40.1,28.9,30.17,WNW,295,1.0,3.0,64,0.00,,SKC,0.00,VWS V13.00,2013-03-15 06:15:00,
2013-03-15 02:20:00,40.1,28.9,30.17,West,267,0.0,5.0,64,0.00,,SKC,0.00,VWS V13.00,2013-03-15 06:20:00,
2013-03-15 02:25:00,40.1,28.9,30.17,NW,307,2.0,7.0,64,0.00,,SKC,0.00,VWS V13.00,2013-03-15 06:25:00,
2013-03-15 02:30:00,40.0,28.8,30.18,WNW,288,0.0,3.0,64,0.00,,SKC,0.00,VWS V13.00,2013-03-15 06:30:00,
2013-03-15 02:35:00,39.8,28.6,30.17,NNW,329,6.0,7.0,64,0.00,,SKC,0.00,VWS V13.00,2013-03-15 06:35:00,
2013-03-15 02:40:00,39.8,28.6,30.18,NW,314,2.0,7.0,64,0.00,,SKC,0.00,VWS V13.00,2013-03-15 06:40:00,
2013-03-15 02:45:00,39.8,28.6,30.17,WNW,292,3.0,5.0,64,0.00,,SKC,0.00,VWS V13.00,2013-03-15 06:45:00,
2013-03-15 02:50:00,39.8,28.6,30.17,NW,313,0.0,5.0,64,0.00,,SKC,0.00,VWS V13.00,2013-03-15 06:50:00,
2013-03-15 02:55:00,39.7,28.5,30.17,NNW,327,1.0,5.0,64,0.00,,SKC,0.00,VWS V13.00,2013-03-15 06:55:00,
2013-03-15 03:00:00,39.6,28.4,30.17,West,281,2.0,5.0,64,0.00,,SKC,0.00,VWS V13.00,2013-03-15 07:00:00,
2013-03-15 03:05:00,39.5,28.4,30.17,WNW,292,3.0,6.0,64,0.00,,SKC,0.00,VWS V13.00,2013-03-15 07:05:00,
2013-03-15 03:10:00,39.4,28.2,30.17,NW,318,7.0,7.0,64,0.00,,SKC,0.00,VWS V13.00,2013-03-15 07:10:00,
2013-03-15 03:15:00,39.3,28.2,30.17,NW,307,0.0,6.0,64,0.00,,SKC,0.00,VWS V13.00,2013-03-15 07:15:00,
2013-03-15 03:20:00,39.2,28.1,30.17,WNW,286,2.0,9.0,64,0.00,,SKC,0.00,VWS V13.00,2013-03-15 07:20:00,
2013-03-15 03:25:00,39.2,28.1,30.17,NW,311,2.0,4.0,64,0.00,,SKC,0.00,VWS V13.00,2013-03-15 07:25:00,
2013-03-15 03:30:00,39.1,28.0,30.17,WNW,299,6.0,8.0,64,0.00,,SKC,0.00,VWS V13.00,2013-03-15 07:30:00,
2013-03-15 03:35:00,39.1,28.0,30.17,WNW,298,3.0,5.0,64,0.00,,SKC,0.00,VWS V13.00,2013-03-15 07:35:00,
2013-03-15 03:40:00,39.0,27.9,30.17,NNW,340,3.0,6.0,64,0.00,,SKC,0.00,VWS V13.00,2013-03-15 07:40:00,
2013-03-15 03:45:00,38.9,27.8,30.17,NW,310,1.0,5.0,64,0.00,,SKC,0.00,VWS V13.00,2013-03-15 07:45:00,
2013-03-15 03:50:00,38.9,27.8,30.16,WNW,291,0.0,4.0,64,0.00,,SKC,0.00,VWS V13.00,2013-03-15 07:50:00,
2013-03-15 03:55:00,38.9,27.8,30.16,NW,311,4.0,5.0,64,0.00,,SKC,0.00,VWS V13.00,2013-03-15 07:55:00,
2013-03-15 04:00:00,38.9,27.8,30.16,NW,325,2.0,6.0,64,0.00,,SKC,0.00,VWS V13.00,2013-03-15 08:00:00,
2013-03-15 04:05:00,38.9,27.8,30.16,NW,324,2.0,6.0,64,0.00,,SKC,0.00,VWS V13.00,2013-03-15 08:05:00,
2013-03-15 04:10:00,38.8,27.7,30.17,WNW,289,5.0,6.0,64,0.00,,SKC,0.00,VWS V13.00,2013-03-15 08:10:00,
2013-03-15 04:15:00,38.7,27.6,30.17,WNW,300,2.0,7.0,64,0.00,,SKC,0.00,VWS V13.00,2013-03-15 08:15:00,
2013-03-15 04:20:00,38.6,27.5,30.17,NW,323,4.0,4.0,64,0.00,,SKC,0.00,VWS V13.00,2013-03-15 08:20:00,
2013-03-15 04:25:00,38.4,27.3,30.17,NW,319,1.0,3.0,64,0.00,,SKC,0.00,VWS V13.00,2013-03-15 08:25:00,
2013-03-15 04:30:00,38.2,27.1,30.17,NW,304,0.0,5.0,64,0.00,,SKC,0.00,VWS V13.00,2013-03-15 08:30:00,
2013-03-15 04:35:00,38.1,27.0,30.17,NNW,328,1.0,7.0,64,0.00,,SKC,0.00,VWS V13.00,2013-03-15 08:35:00,
2013-03-15 04:40:00,38.0,26.9,30.17,NW,316,4.0,6.0,64,0.00,,SKC,0.00,VWS V13.00,2013-03-15 08:40:00,
2013-03-15 04:45:00,38.1,27.0,30.16,NW,323,4.0,5.0,64,0.00,,SKC,0.00,VWS V13.00,2013-03-15 08:45:00,
2013-03-15 04:50:00,38.1,27.0,30.16,North,355,3.0,7.0,64,0.00,,SKC,0.00,VWS V13.00,2013-03-15 08:50:00,
2013-03-15 04:55:00,38.0,26.9,30.16,NNW,327,2.0,6.0,64,0.00,,SKC,0.00,VWS V13.00,2013-03-15 08:55:00,
2013-03-15 05:00:00,37.9,26.8,30.16,NNW,336,3.0,6.0,64,0.00,,SKC,0.00,VWS V13.00,2013-03-15 09:00:00,
2013-03-15 05:05:00,37.8,26.7,30.16,NNW,327,1.0,5.0,64,0.00,,SKC,0.00,VWS V13.00,2013-03-15 09:05:00,
2013-03-15 05:10:00,37.6,26.2,30.17,NNW,346,4.0,6.0,63,0.00,,SKC,0.00,VWS V13.00,2013-03-15 09:10:00,
2013-03-15 05:15:00,37.5,26.1,30.17,NW,314,2.0,6.0,63,0.00,,SKC,0.00,VWS V13.00,2013-03-15 09:15:00,
2013-03-15 05:20:00,37.3,25.9,30.16,North,355,2.0,7.0,63,0.00,,SKC,0.00,VWS V13.00,2013-03-15 09:20:00,
2013-03-15 05:25:00,37.1,25.7,30.16,NW,314,4.0,7.0,63,0.00,,SKC,0.00,VWS V13.00,2013-03-15 09:25:00,
2013-03-15 05:30:00,36.9,25.5,30.17,NW,318,6.0,7.0,63,0.00,,SKC,0.00,VWS V13.00,2013-03-15 09:30:00,
2013-03-15 05:35:00,36.8,25.4,30.17,NNW,329,2.0,5.0,63,0.00,,SKC,0.00,VWS V13.00,2013-03-15 09:35:00,
2013-03-15 05:40:00,36.6,25.2,30.17,NNW,329,2.0,3.0,63,0.00,,SKC,0.00,VWS V13.00,2013-03-15 09:40:00,
2013-03-15 05:45:00,36.3,25.3,30.17,NW,309,3.0,6.0,64,0.00,,SKC,0.00,VWS V13.00,2013-03-15 09:45:00,
2013-03-15 05:50:00,36.1,25.1,30.18,NW,311,0.0,6.0,64,0.00,,SKC,0.00,VWS V13.00,2013-03-15 09:50:00,
2013-03-15 05:55:00,35.9,24.9,30.18,NW,325,0.0,4.0,64,0.00,,SKC,0.00,VWS V13.00,2013-03-15 09:55:00,
2013-03-15 06:00:00,35.7,24.7,30.18,WNW,296,2.0,3.0,64,0.00,,SKC,0.00,VWS V13.00,2013-03-15 10:00:00,
2013-03-15 06:05:00,35.4,24.5,30.18,NW,314,0.0,3.0,64,0.00,,SKC,0.00,VWS V13.00,2013-03-15 10:05:00,
2013-03-15 06:10:00,35.2,24.3,30.18,NW,320,2.0,2.0,64,0.00,,SKC,0.00,VWS V13.00,2013-03-15 10:10:00,
2013-03-15 06:15:00,34.9,24.0,30.18,NW,320,0.0,2.0,64,0.00,,SKC,0.00,VWS V13.00,2013-03-15 10:15:00,
2013-03-15 06:20:00,34.6,23.7,30.18,NW,322,2.0,4.0,64,0.00,,SKC,0.00,VWS V13.00,2013-03-15 10:20:00,
2013-03-15 06:25:00,34.4,23.5,30.18,NW,326,2.0,5.0,64,0.00,,SKC,0.00,VWS V13.00,2013-03-15 10:25:00,
2013-03-15 06:30:00,34.3,23.4,30.19,NW,318,3.0,4.0,64,0.00,,SKC,0.00,VWS V13.00,2013-03-15 10:30:00,
2013-03-15 06:35:00,34.0,23.1,30.19,NW,321,3.0,4.0,64,0.00,,SKC,0.00,VWS V13.00,2013-03-15 10:35:00,
2013-03-15 06:40:00,33.8,23.3,30.19,NW,321,0.0,2.0,65,0.00,,SKC,0.00,VWS V13.00,2013-03-15 10:40:00,
2013-03-15 06:45:00,33.7,23.2,30.19,NW,321,0.0,2.0,65,0.00,,SKC,0.00,VWS V13.00,2013-03-15 10:45:00,
2013-03-15 06:50:00,33.6,23.1,30.19,NNW,331,2.0,6.0,65,0.00,,SKC,0.00,VWS V13.00,2013-03-15 10:50:00,
2013-03-15 06:55:00,33.4,22.9,30.19,NW,317,1.0,4.0,65,0.00,,SKC,0.00,VWS V13.00,2013-03-15 10:55:00,
2013-03-15 07:00:00,33.3,22.8,30.19,NNW,330,0.0,4.0,65,0.00,,SKC,0.00,VWS V13.00,2013-03-15 11:00:00,
2013-03-15 07:05:00,33.1,22.6,30.18,NNW,331,0.0,4.0,65,0.00,,SKC,0.00,VWS V13.00,2013-03-15 11:05:00,
2013-03-15 07:10:00,33.0,22.5,30.18,NNW,330,1.0,3.0,65,0.00,,SKC,0.00,VWS V13.00,2013-03-15 11:10:00,
2013-03-15 07:15:00,32.9,22.4,30.19,NW,315,3.0,5.0,65,0.00,,SKC,0.00,VWS V13.00,2013-03-15 11:15:00,
2013-03-15 07:20:00,32.8,22.3,30.19,NW,315,0.0,4.0,65,0.00,,SKC,0.00,VWS V13.00,2013-03-15 11:20:00,
2013-03-15 07:25:00,32.7,22.2,30.19,NNW,329,1.0,3.0,65,0.00,,SKC,0.00,VWS V13.00,2013-03-15 11:25:00,
2013-03-15 07:30:00,32.6,22.5,30.19,NNW,329,0.0,0.0,66,0.00,,SKC,0.00,VWS V13.00,2013-03-15 11:30:00,
2013-03-15 07:35:00,32.6,22.5,30.19,NNW,329,0.0,2.0,66,0.00,,SKC,0.00,VWS V13.00,2013-03-15 11:35:00,
2013-03-15 07:39:00,32.6,22.5,30.19,NNW,329,0.0,1.0,66,0.00,,SKC,0.00,VWS V13.00,2013-03-15 11:39:00,
2013-03-15 07:44:00,32.6,22.5,30.19,WNW,294,0.0,2.0,66,0.00,,SKC,0.00,VWS V13.00,2013-03-15 11:44:00,
2013-03-15 07:49:00,32.5,22.4,30.19,WNW,294,0.0,2.0,66,0.00,,SKC,0.00,VWS V13.00,2013-03-15 11:49:00,
2013-03-15 07:54:00,32.6,22.5,30.19,WNW,287,1.0,4.0,66,0.00,,SKC,0.00,VWS V13.00,2013-03-15 11:54:00,
2013-03-15 07:59:00,32.7,22.6,30.20,WNW,283,3.0,3.0,66,0.00,,SKC,0.00,VWS V13.00,2013-03-15 11:59:00,
2013-03-15 08:04:00,32.9,22.8,30.20,West,271,0.0,4.0,66,0.00,,SKC,0.00,VWS V13.00,2013-03-15 12:04:00,
2013-03-15 08:09:00,33.2,23.5,30.20,WNW,289,2.0,3.0,67,0.00,,SKC,0.00,VWS V13.00,2013-03-15 12:09:00,
2013-03-15 08:14:00,33.5,23.7,30.20,WNW,286,0.0,2.0,67,0.00,,SKC,0.00,VWS V13.00,2013-03-15 12:14:00,
2013-03-15 08:20:00,33.8,24.0,30.20,WNW,286,0.0,1.0,67,0.00,,SKC,0.00,VWS V13.00,2013-03-15 12:20:00,
2013-03-15 08:25:00,34.1,24.3,30.19,West,273,0.0,2.0,67,0.00,,SKC,0.00,VWS V13.00,2013-03-15 12:25:00,
2013-03-15 08:29:00,34.4,24.6,30.19,WNW,291,2.0,3.0,67,0.00,,SKC,0.00,VWS V13.00,2013-03-15 12:29:00,
2013-03-15 08:35:00,35.0,25.2,30.19,NW,311,1.0,3.0,67,0.00,,SKC,0.00,VWS V13.00,2013-03-15 12:35:00,
2013-03-15 08:40:00,35.7,25.8,30.19,NW,315,2.0,6.0,67,0.00,,SKC,0.00,VWS V13.00,2013-03-15 12:40:00,
2013-03-15 08:44:00,36.6,26.7,30.20,WNW,293,1.0,5.0,67,0.00,,SKC,0.00,VWS V13.00,2013-03-15 12:44:00,
2013-03-15 08:49:00,37.4,27.5,30.20,NW,314,2.0,5.0,67,0.00,,SKC,0.00,VWS V13.00,2013-03-15 12:49:00,
2013-03-15 08:54:00,38.2,27.9,30.20,WNW,284,0.0,4.0,66,0.00,,SKC,0.00,VWS V13.00,2013-03-15 12:54:00,
2013-03-15 08:59:00,38.8,28.4,30.20,NW,310,3.0,3.0,66,0.00,,SKC,0.00,VWS V13.00,2013-03-15 12:59:00,
2013-03-15 09:04:00,39.5,29.1,30.20,West,272,3.0,5.0,66,0.00,,SKC,0.00,VWS V13.00,2013-03-15 13:04:00,
2013-03-15 09:09:00,40.2,29.8,30.20,WNW,299,3.0,6.0,66,0.00,,SKC,0.00,VWS V13.00,2013-03-15 13:09:00,
2013-03-15 09:14:00,40.8,30.0,30.20,WNW,292,4.0,7.0,65,0.00,,SKC,0.00,VWS V13.00,2013-03-15 13:14:00,
2013-03-15 09:19:00,41.3,30.4,30.21,WNW,299,0.0,6.0,65,0.00,,SKC,0.00,VWS V13.00,2013-03-15 13:19:00,
2013-03-15 09:24:00,41.9,31.0,30.21,WNW,283,3.0,8.0,65,0.00,,SKC,0.00,VWS V13.00,2013-03-15 13:24:00,
2013-03-15 09:29:00,42.4,31.1,30.21,NW,307,4.0,6.0,64,0.00,,SKC,0.00,VWS V13.00,2013-03-15 13:29:00,
2013-03-15 09:34:00,42.8,31.5,30.20,WNW,288,4.0,7.0,64,0.00,,SKC,0.00,VWS V13.00,2013-03-15 13:34:00,
2013-03-15 09:39:00,43.4,31.7,30.20,West,279,7.0,7.0,63,0.00,,SKC,0.00,VWS V13.00,2013-03-15 13:39:00,
2013-03-15 09:44:00,44.2,32.4,30.20,NW,311,2.0,3.0,63,0.00,,SKC,0.00,VWS V13.00,2013-03-15 13:44:00,
2013-03-15 09:49:00,45.0,32.8,30.20,WNW,289,3.0,6.0,62,0.00,,SKC,0.00,VWS V13.00,2013-03-15 13:49:00,
2013-03-15 09:54:00,45.6,32.9,30.21,NW,305,5.0,5.0,61,0.00,,SKC,0.00,VWS V13.00,2013-03-15 13:54:00,
2013-03-15 09:59:00,46.2,33.1,30.21,NW,304,1.0,6.0,60,0.00,,SKC,0.00,VWS V13.00,2013-03-15 13:59:00,
2013-03-15 10:04:00,46.8,33.7,30.21,WNW,288,4.0,8.0,60,0.00,,SKC,0.00,VWS V13.00,2013-03-15 14:04:00,
2013-03-15 10:09:00,47.3,33.7,30.21,WNW,296,6.0,9.0,59,0.00,,SKC,0.00,VWS V13.00,2013-03-15 14:09:00,
2013-03-15 10:14:00,47.7,34.1,30.21,NNW,337,4.0,6.0,59,0.00,,SKC,0.00,VWS V13.00,2013-03-15 14:14:00,
2013-03-15 10:19:00,48.1,34.0,30.21,NW,308,0.0,7.0,58,0.00,,SKC,0.00,VWS V13.00,2013-03-15 14:19:00,
2013-03-15 10:24:00,48.7,34.6,30.20,WNW,296,9.0,9.0,58,0.00,,SKC,0.00,VWS V13.00,2013-03-15 14:24:00,
2013-03-15 10:29:00,48.9,34.3,30.20,West,275,3.0,6.0,57,0.00,,SKC,0.00,VWS V13.00,2013-03-15 14:29:00,
2013-03-15 10:34:00,49.4,34.4,30.20,NW,305,5.0,6.0,56,0.00,,SKC,0.00,VWS V13.00,2013-03-15 14:34:00,
2013-03-15 10:39:00,50.0,34.9,30.20,West,273,3.0,7.0,56,0.00,,SKC,0.00,VWS V13.00,2013-03-15 14:39:00,
2013-03-15 10:44:00,50.6,35.5,30.19,WSW,257,3.0,7.0,56,0.00,,SKC,0.00,VWS V13.00,2013-03-15 14:44:00,
2013-03-15 10:49:00,51.0,35.4,30.19,North,350,6.0,6.0,55,0.00,,SKC,0.00,VWS V13.00,2013-03-15 14:49:00,
2013-03-15 10:54:00,50.9,34.9,30.19,SSW,208,1.0,3.0,54,0.00,,SKC,0.00,VWS V13.00,2013-03-15 14:54:00,
2013-03-15 10:59:00,51.3,35.2,30.19,WNW,286,2.0,7.0,54,0.00,,SKC,0.00,VWS V13.00,2013-03-15 14:59:00,
2013-03-15 11:04:00,52.0,35.4,30.19,SW,221,5.0,6.0,53,0.00,,SKC,0.00,VWS V13.00,2013-03-15 15:04:00,
2013-03-15 11:09:00,52.2,35.1,30.19,WNW,284,2.0,8.0,52,0.00,,SKC,0.00,VWS V13.00,2013-03-15 15:09:00,
2013-03-15 11:14:00,52.4,35.3,30.19,West,262,5.0,8.0,52,0.00,,SKC,0.00,VWS V13.00,2013-03-15 15:14:00,
2013-03-15 11:19:00,52.9,35.8,30.19,West,259,6.0,8.0,52,0.00,,SKC,0.00,VWS V13.00,2013-03-15 15:19:00,
2013-03-15 11:24:00,53.2,35.6,30.19,SW,222,3.0,6.0,51,0.00,,SKC,0.00,VWS V13.00,2013-03-15 15:24:00,
2013-03-15 11:29:00,53.6,35.9,30.19,South,190,5.0,8.0,51,0.00,,SKC,0.00,VWS V13.00,2013-03-15 15:29:00,
2013-03-15 11:34:00,53.9,35.7,30.18,East,82,0.0,7.0,50,0.00,,SKC,0.00,VWS V13.00,2013-03-15 15:34:00,
2013-03-15 11:39:00,54.0,35.3,30.18,West,260,5.0,14.0,49,0.00,,SKC,0.00,VWS V13.00,2013-03-15 15:39:00,
2013-03-15 11:44:00,54.0,35.3,30.18,West,275,7.0,10.0,49,0.00,,SKC,0.00,VWS V13.00,2013-03-15 15:44:00,
2013-03-15 11:49:00,54.2,35.0,30.18,WNW,290,5.0,8.0,48,0.00,,SKC,0.00,VWS V13.00,2013-03-15 15:49:00,
2013-03-15 11:54:00,54.5,35.2,30.18,WSW,250,7.0,8.0,48,0.00,,SKC,0.00,VWS V13.00,2013-03-15 15:54:00,
2013-03-15 11:59:00,54.9,35.6,30.17,South,186,1.0,7.0,48,0.00,,SKC,0.00,VWS V13.00,2013-03-15 15:59:00,
2013-03-15 12:04:00,55.3,35.4,30.17,SW,227,4.0,12.0,47,0.00,,SKC,0.00,VWS V13.00,2013-03-15 16:04:00,
2013-03-15 12:09:00,55.3,35.4,30.17,SSW,194,1.0,10.0,47,0.00,,SKC,0.00,VWS V13.00,2013-03-15 16:09:00,
2013-03-15 12:14:00,55.1,35.8,30.16,South,171,10.0,12.0,48,0.00,,SKC,0.00,VWS V13.00,2013-03-15 16:14:00,
2013-03-15 12:19:00,55.1,35.8,30.16,SSW,202,5.0,13.0,48,0.00,,SKC,0.00,VWS V13.00,2013-03-15 16:19:00,
2013-03-15 12:24:00,54.6,35.3,30.16,South,187,9.0,12.0,48,0.00,,SKC,0.00,VWS V13.00,2013-03-15 16:24:00,
2013-03-15 12:29:00,54.3,35.0,30.16,WSW,245,0.0,10.0,48,0.00,,SKC,0.00,VWS V13.00,2013-03-15 16:29:00,
2013-03-15 12:34:00,54.1,34.3,30.16,SW,219,6.0,12.0,47,0.00,,SKC,0.00,VWS V13.00,2013-03-15 16:34:00,
2013-03-15 12:39:00,54.1,34.3,30.16,South,187,9.0,11.0,47,0.00,,SKC,0.00,VWS V13.00,2013-03-15 16:39:00,
2013-03-15 12:44:00,54.2,35.0,30.16,SSE,164,1.0,8.0,48,0.00,,SKC,0.00,VWS V13.00,2013-03-15 16:44:00,
2013-03-15 12:49:00,54.4,35.1,30.15,SW,231,6.0,11.0,48,0.00,,SKC,0.00,VWS V13.00,2013-03-15 16:49:00,
2013-03-15 12:54:00,54.6,35.3,30.15,South,182,6.0,13.0,48,0.00,,SKC,0.00,VWS V13.00,2013-03-15 16:54:00,
2013-03-15 12:59:00,54.6,35.3,30.14,SW,219,9.0,15.0,48,0.00,,SKC,0.00,VWS V13.00,2013-03-15 16:59:00,
2013-03-15 13:04:00,54.5,35.2,30.14,South,176,12.0,14.0,48,0.00,,SKC,0.00,VWS V13.00,2013-03-15 17:04:00,
2013-03-15 13:09:00,54.5,35.2,30.14,SSW,204,12.0,12.0,48,0.00,,SKC,0.00,VWS V13.00,2013-03-15 17:09:00,
2013-03-15 13:14:00,54.4,34.6,30.14,SSW,202,5.0,15.0,47,0.00,,SKC,0.00,VWS V13.00,2013-03-15 17:14:00,
2013-03-15 13:19:00,54.3,35.0,30.13,SSW,192,1.0,14.0,48,0.00,,SKC,0.00,VWS V13.00,2013-03-15 17:19:00,
2013-03-15 13:24:00,54.4,34.6,30.13,SSW,207,8.0,13.0,47,0.00,,SKC,0.00,VWS V13.00,2013-03-15 17:24:00,
2013-03-15 13:29:00,54.3,35.0,30.13,South,191,9.0,13.0,48,0.00,,SKC,0.00,VWS V13.00,2013-03-15 17:29:00,
2013-03-15 13:34:00,54.4,35.1,30.13,South,186,8.0,14.0,48,0.00,,SKC,0.00,VWS V13.00,2013-03-15 17:34:00,
2013-03-15 13:39:00,54.4,35.1,30.13,SW,230,12.0,12.0,48,0.00,,SKC,0.00,VWS V13.00,2013-03-15 17:39:00,
2013-03-15 13:44:00,54.4,35.1,30.12,SSW,211,9.0,18.0,48,0.00,,SKC,0.00,VWS V13.00,2013-03-15 17:44:00,
2013-03-15 13:49:00,54.3,35.0,30.12,SSW,192,12.0,14.0,48,0.00,,SKC,0.00,VWS V13.00,2013-03-15 17:49:00,
2013-03-15 13:54:00,54.5,35.2,30.12,SSW,201,7.0,14.0,48,0.00,,SKC,0.00,VWS V13.00,2013-03-15 17:54:00,
2013-03-15 13:59:00,54.6,35.3,30.12,SSW,194,8.0,12.0,48,0.00,,SKC,0.00,VWS V13.00,2013-03-15 17:59:00,
2013-03-15 14:04:00,54.5,35.2,30.11,SW,217,9.0,14.0,48,0.00,,SKC,0.00,VWS V13.00,2013-03-15 18:04:00,
2013-03-15 14:09:00,54.6,35.3,30.11,South,188,15.0,15.0,48,0.00,,SKC,0.00,VWS V13.00,2013-03-15 18:09:00,
2013-03-15 14:14:00,54.6,35.3,30.10,SSW,207,7.0,16.0,48,0.00,,SKC,0.00,VWS V13.00,2013-03-15 18:14:00,
2013-03-15 14:19:00,54.5,35.2,30.09,South,182,11.0,17.0,48,0.00,,SKC,0.00,VWS V13.00,2013-03-15 18:19:00,
2013-03-15 14:24:00,54.4,35.1,30.09,SSW,202,6.0,19.0,48,0.00,,SKC,0.00,VWS V13.00,2013-03-15 18:24:00,
2013-03-15 14:29:00,54.5,35.8,30.08,SSW,205,7.0,17.0,49,0.00,,SKC,0.00,VWS V13.00,2013-03-15 18:29:00,
2013-03-15 14:34:00,54.7,35.9,30.08,SW,220,10.0,14.0,49,0.00,,SKC,0.00,VWS V13.00,2013-03-15 18:34:00,
2013-03-15 14:39:00,54.7,35.9,30.08,WSW,242,8.0,13.0,49,0.00,,SKC,0.00,VWS V13.00,2013-03-15 18:39:00,
2013-03-15 14:44:00,54.8,36.0,30.08,SW,227,5.0,18.0,49,0.00,,SKC,0.00,VWS V13.00,2013-03-15 18:44:00,
2013-03-15 14:49:00,54.8,36.0,30.08,WSW,244,9.0,16.0,49,0.00,,SKC,0.00,VWS V13.00,2013-03-15 18:49:00,
2013-03-15 14:54:00,54.9,36.1,30.07,SSW,211,10.0,12.0,49,0.00,,SKC,0.00,VWS V13.00,2013-03-15 18:54:00,
2013-03-15 14:59:00,55.0,36.2,30.07,South,190,9.0,16.0,49,0.00,,SKC,0.00,VWS V13.00,2013-03-15 18:59:00,
2013-03-15 15:04:00,55.0,36.2,30.07,SSW,211,9.0,14.0,49,0.00,,SKC,0.00,VWS V13.00,2013-03-15 19:04:00,
2013-03-15 15:09:00,55.0,36.2,30.07,SSW,212,7.0,14.0,49,0.00,,SKC,0.00,VWS V13.00,2013-03-15 19:09:00,
2013-03-15 15:14:00,55.1,36.3,30.07,SW,222,8.0,17.0,49,0.00,,SKC,0.00,VWS V13.00,2013-03-15 19:14:00,
2013-03-15 15:19:00,55.1,36.3,30.07,WSW,238,7.0,19.0,49,0.00,,SKC,0.00,VWS V13.00,2013-03-15 19:19:00,
2013-03-15 15:24:00,55.3,36.5,30.07,SW,215,12.0,15.0,49,0.00,,SKC,0.00,VWS V13.00,2013-03-15 19:24:00,
2013-03-15 15:29:00,55.4,37.1,30.06,SW,221,7.0,15.0,50,0.00,,SKC,0.00,VWS V13.00,2013-03-15 19:29:00,
2013-03-15 15:34:00,55.5,37.2,30.06,SW,224,9.0,15.0,50,0.00,,SKC,0.00,VWS V13.00,2013-03-15 19:34:00,
2013-03-15 15:39:00,55.6,37.3,30.07,WSW,248,8.0,16.0,50,0.00,,SKC,0.00,VWS V13.00,2013-03-15 19:39:00,
2013-03-15 15:44:00,55.5,37.2,30.06,WSW,238,9.0,16.0,50,0.00,,SKC,0.00,VWS V13.00,2013-03-15 19:44:00,
2013-03-15 15:49:00,55.5,37.2,30.06,SW,228,10.0,16.0,50,0.00,,SKC,0.00,VWS V13.00,2013-03-15 19:49:00,
2013-03-15 15:54:00,55.4,37.6,30.05,WSW,249,7.0,19.0,51,0.00,,SKC,0.00,VWS V13.00,2013-03-15 19:54:00,
2013-03-15 15:59:00,55.3,37.5,30.05,SW,216,10.0,20.0,51,0.00,,SKC,0.00,VWS V13.00,2013-03-15 19:59:00,
2013-03-15 16:04:00,55.2,37.4,30.05,SW,235,6.0,18.0,51,0.00,,SKC,0.00,VWS V13.00,2013-03-15 20:04:00,
2013-03-15 16:09:00,55.3,37.5,30.05,SSW,199,14.0,18.0,51,0.00,,SKC,0.00,VWS V13.00,2013-03-15 20:09:00,
2013-03-15 16:14:00,55.2,37.4,30.05,SW,236,12.0,24.0,51,0.00,,SKC,0.00,VWS V13.00,2013-03-15 20:14:00,
2013-03-15 16:19:00,54.9,37.1,30.05,SW,225,19.0,20.0,51,0.00,,SKC,0.00,VWS V13.00,2013-03-15 20:19:00,
2013-03-15 16:24:00,54.5,36.8,30.05,South,182,8.0,19.0,51,0.00,,SKC,0.00,VWS V13.00,2013-03-15 20:24:00,
2013-03-15 16:29:00,54.2,37.0,30.05,SW,236,10.0,19.0,52,0.00,,SKC,0.00,VWS V13.00,2013-03-15 20:29:00,
2013-03-15 16:34:00,54.1,36.9,30.05,SW,217,9.0,19.0,52,0.00,,SKC,0.00,VWS V13.00,2013-03-15 20:34:00,
2013-03-15 16:39:00,53.9,36.7,30.04,WSW,243,13.0,24.0,52,0.00,,SKC,0.00,VWS V13.00,2013-03-15 20:39:00,
2013-03-15 16:44:00,53.9,36.7,30.04,SW,214,11.0,21.0,52,0.00,,SKC,0.00,VWS V13.00,2013-03-15 20:44:00,
2013-03-15 16:49:00,53.9,37.2,30.04,SSW,205,6.0,21.0,53,0.00,,SKC,0.00,VWS V13.00,2013-03-15 20:49:00,
2013-03-15 16:54:00,53.8,37.1,30.04,SSW,197,13.0,18.0,53,0.00,,SKC,0.00,VWS V13.00,2013-03-15 20:54:00,
2013-03-15 16:59:00,53.9,37.2,30.03,SSW,208,13.0,19.0,53,0.00,,SKC,0.00,VWS V13.00,2013-03-15 20:59:00,
2013-03-15 17:04:00,54.0,37.8,30.03,SW,219,12.0,19.0,54,0.00,,SKC,0.00,VWS V13.00,2013-03-15 21:04:00,
2013-03-15 17:09:00,53.9,37.7,30.03,SW,228,8.0,21.0,54,0.00,,SKC,0.00,VWS V13.00,2013-03-15 21:09:00,
2013-03-15 17:14:00,53.8,37.6,30.03,WSW,238,12.0,20.0,54,0.00,,SKC,0.00,VWS V13.00,2013-03-15 21:14:00,
2013-03-15 17:19:00,53.7,37.5,30.02,SW,217,15.0,21.0,54,0.00,,SKC,0.00,VWS V13.00,2013-03-15 21:19:00,
2013-03-15 17:24:00,53.7,37.5,30.03,West,267,11.0,22.0,54,0.00,,SKC,0.00,VWS V13.00,2013-03-15 21:24:00,
2013-03-15 17:29:00,53.6,37.8,30.03,SSW,211,3.0,18.0,55,0.00,,SKC,0.00,VWS V13.00,2013-03-15 21:29:00,
2013-03-15 17:34:00,53.6,37.8,30.03,SSW,212,11.0,18.0,55,0.00,,SKC,0.00,VWS V13.00,2013-03-15 21:34:00,
2013-03-15 17:39:00,53.6,37.8,30.02,SW,236,4.0,18.0,55,0.00,,SKC,0.00,VWS V13.00,2013-03-15 21:39:00,
2013-03-15 17:44:00,53.5,38.2,30.03,SW,222,13.0,17.0,56,0.00,,SKC,0.00,VWS V13.00,2013-03-15 21:44:00,
2013-03-15 17:49:00,53.4,38.1,30.02,South,188,7.0,15.0,56,0.00,,SKC,0.00,VWS V13.00,2013-03-15 21:49:00,
2013-03-15 17:54:00,53.3,38.0,30.02,South,182,13.0,17.0,56,0.00,,SKC,0.00,VWS V13.00,2013-03-15 21:54:00,
2013-03-15 17:59:00,53.3,38.5,30.02,WSW,252,16.0,22.0,57,0.00,,SKC,0.00,VWS V13.00,2013-03-15 21:59:00,
2013-03-15 18:04:00,53.2,38.4,30.02,SSW,197,17.0,19.0,57,0.00,,SKC,0.00,VWS V13.00,2013-03-15 22:04:00,
2013-03-15 18:09:00,53.2,38.4,30.02,WSW,256,14.0,18.0,57,0.00,,SKC,0.00,VWS V13.00,2013-03-15 22:09:00,
2013-03-15 18:14:00,53.2,38.8,30.02,SSW,196,8.0,16.0,58,0.00,,SKC,0.00,VWS V13.00,2013-03-15 22:14:00,
2013-03-15 18:19:00,53.2,38.8,30.02,WSW,254,12.0,19.0,58,0.00,,SKC,0.00,VWS V13.00,2013-03-15 22:19:00,
2013-03-15 18:24:00,53.2,39.3,30.02,SW,220,15.0,21.0,59,0.00,,SKC,0.00,VWS V13.00,2013-03-15 22:24:00,
2013-03-15 18:29:00,53.0,39.1,30.02,SSW,207,15.0,21.0,59,0.00,,SKC,0.00,VWS V13.00,2013-03-15 22:29:00,
2013-03-15 18:34:00,52.9,39.0,30.01,SW,223,8.0,17.0,59,0.00,,SKC,0.00,VWS V13.00,2013-03-15 22:34:00,
2013-03-15 18:39:00,52.9,39.0,30.01,South,188,11.0,18.0,59,0.00,,SKC,0.00,VWS V13.00,2013-03-15 22:39:00,
2013-03-15 18:44:00,52.8,39.3,30.01,SW,225,10.0,21.0,60,0.00,,SKC,0.00,VWS V13.00,2013-03-15 22:44:00,
2013-03-15 18:49:00,52.7,39.2,30.00,SW,234,12.0,18.0,60,0.00,,SKC,0.00,VWS V13.00,2013-03-15 22:49:00,
2013-03-15 18:54:00,52.6,39.5,30.00,WSW,244,8.0,15.0,61,0.00,,SKC,0.00,VWS V13.00,2013-03-15 22:54:00,
2013-03-15 18:59:00,52.6,39.5,30.00,SSW,207,8.0,16.0,61,0.00,,SKC,0.00,VWS V13.00,2013-03-15 22:59:00,
2013-03-15 19:04:00,52.5,39.5,30.00,SSW,202,13.0,19.0,61,0.00,,SKC,0.00,VWS V13.00,2013-03-15 23:04:00,
2013-03-15 19:09:00,52.5,39.5,30.01,SSW,211,7.0,16.0,61,0.00,,SKC,0.00,VWS V13.00,2013-03-15 23:09:00,
2013-03-15 19:14:00,52.5,39.9,30.01,WSW,246,14.0,18.0,62,0.00,,SKC,0.00,VWS V13.00,2013-03-15 23:14:00,
2013-03-15 19:19:00,52.5,39.9,30.01,SSW,201,8.0,20.0,62,0.00,,SKC,0.00,VWS V13.00,2013-03-15 23:19:00,
2013-03-15 19:24:00,52.4,39.8,30.00,SW,227,13.0,13.0,62,0.00,,SKC,0.00,VWS V13.00,2013-03-15 23:24:00,
2013-03-15 19:29:00,52.5,39.9,30.00,WSW,258,9.0,20.0,62,0.00,,SKC,0.00,VWS V13.00,2013-03-15 23:29:00,
2013-03-15 19:34:00,52.5,40.3,30.00,SW,230,10.0,18.0,63,0.00,,SKC,0.00,VWS V13.00,2013-03-15 23:34:00,
2013-03-15 19:39:00,52.5,40.3,30.01,West,279,12.0,15.0,63,0.00,,SKC,0.00,VWS V13.00,2013-03-15 23:39:00,
2013-03-15 19:44:00,52.5,40.3,30.00,WSW,238,8.0,15.0,63,0.00,,SKC,0.00,VWS V13.00,2013-03-15 23:44:00,
2013-03-15 19:49:00,52.4,40.2,30.00,SW,225,12.0,14.0,63,0.00,,SKC,0.00,VWS V13.00,2013-03-15 23:49:00,
2013-03-15 19:54:00,52.4,40.2,30.00,SSW,201,9.0,18.0,63,0.00,,SKC,0.00,VWS V13.00,2013-03-15 23:54:00,
2013-03-15 19:59:00,52.4,40.2,30.00,SW,231,5.0,15.0,63,0.00,,SKC,0.00,VWS V13.00,2013-03-15 23:59:00,
2013-03-15 20:04:00,52.3,40.1,30.00,SW,231,9.0,15.0,63,0.00,,SKC,0.00,VWS V13.00,2013-03-16 00:04:00,
2013-03-15 20:09:00,52.3,40.1,30.00,West,265,11.0,15.0,63,0.00,,SKC,0.00,VWS V13.00,2013-03-16 00:09:00,
2013-03-15 20:14:00,52.4,40.6,30.00,WSW,246,11.0,18.0,64,0.00,,SKC,0.00,VWS V13.00,2013-03-16 00:14:00,
2013-03-15 20:19:00,52.4,40.6,30.00,SW,227,11.0,18.0,64,0.00,,SKC,0.00,VWS V13.00,2013-03-16 00:19:00,
2013-03-15 20:24:00,52.4,40.6,30.01,SSW,207,6.0,17.0,64,0.00,,SKC,0.00,VWS V13.00,2013-03-16 00:24:00,
2013-03-15 20:29:00,52.3,40.5,30.01,SSW,200,9.0,15.0,64,0.00,,SKC,0.00,VWS V13.00,2013-03-16 00:29:00,
2013-03-15 20:34:00,52.3,40.5,30.01,SW,226,10.0,17.0,64,0.00,,SKC,0.00,VWS V13.00,2013-03-16 00:34:00,
2013-03-15 20:39:00,52.3,40.5,30.01,SSW,193,8.0,16.0,64,0.00,,SKC,0.00,VWS V13.00,2013-03-16 00:39:00,
2013-03-15 20:44:00,52.3,40.5,30.00,SW,229,6.0,16.0,64,0.00,,SKC,0.00,VWS V13.00,2013-03-16 00:44:00,
2013-03-15 20:49:00,52.3,40.5,30.01,SW,229,9.0,12.0,64,0.00,,SKC,0.00,VWS V13.00,2013-03-16 00:49:00,
2013-03-15 20:54:00,52.3,40.5,30.01,WSW,248,6.0,18.0,64,0.00,,SKC,0.00,VWS V13.00,2013-03-16 00:54:00,
2013-03-15 20:59:00,52.3,40.9,30.01,West,265,7.0,18.0,65,0.00,,SKC,0.00,VWS V13.00,2013-03-16 00:59:00,
2013-03-15 21:04:00,52.3,40.9,30.01,SSW,192,7.0,17.0,65,0.00,,SKC,0.00,VWS V13.00,2013-03-16 01:04:00,
2013-03-15 21:09:00,52.3,40.9,30.01,SSW,210,7.0,18.0,65,0.00,,SKC,0.00,VWS V13.00,2013-03-16 01:09:00,
2013-03-15 21:14:00,52.2,40.8,30.01,WSW,237,5.0,17.0,65,0.00,,SKC,0.00,VWS V13.00,2013-03-16 01:14:00,
2013-03-15 21:19:00,52.3,40.9,30.01,WSW,238,17.0,17.0,65,0.00,,SKC,0.00,VWS V13.00,2013-03-16 01:19:00,
2013-03-15 21:24:00,52.3,40.9,30.01,SW,229,14.0,15.0,65,0.00,,SKC,0.00,VWS V13.00,2013-03-16 01:24:00,
2013-03-15 21:29:00,52.3,40.9,30.01,WSW,244,9.0,13.0,65,0.00,,SKC,0.00,VWS V13.00,2013-03-16 01:29:00,
2013-03-15 21:34:00,52.3,40.9,30.01,SW,215,11.0,16.0,65,0.00,,SKC,0.00,VWS V13.00,2013-03-16 01:34:00,
2013-03-15 21:39:00,52.3,40.9,30.00,WSW,251,13.0,15.0,65,0.00,,SKC,0.00,VWS V13.00,2013-03-16 01:39:00,
2013-03-15 21:44:00,52.4,41.0,30.00,WSW,238,6.0,17.0,65,0.00,,SKC,0.00,VWS V13.00,2013-03-16 01:44:00,
2013-03-15 21:49:00,52.4,41.0,30.00,West,260,6.0,15.0,65,0.00,,SKC,0.00,VWS V13.00,2013-03-16 01:49:00,
2013-03-15 21:54:00,52.4,41.0,30.00,SW,226,12.0,15.0,65,0.00,,SKC,0.00,VWS V13.00,2013-03-16 01:54:00,
2013-03-15 21:59:00,52.5,41.5,30.00,WSW,240,11.0,14.0,66,0.00,,SKC,0.00,VWS V13.00,2013-03-16 01:59:00,
2013-03-15 22:04:00,52.5,41.5,30.01,WSW,237,9.0,17.0,66,0.00,,SKC,0.00,VWS V13.00,2013-03-16 02:04:00,
2013-03-15 22:09:00,52.6,41.6,30.00,West,273,6.0,16.0,66,0.00,,SKC,0.00,VWS V13.00,2013-03-16 02:09:00,
2013-03-15 22:14:00,52.6,41.6,30.00,SW,221,8.0,16.0,66,0.00,,SKC,0.00,VWS V13.00,2013-03-16 02:14:00,
2013-03-15 22:19:00,52.6,41.6,30.00,West,272,12.0,15.0,66,0.00,,SKC,0.00,VWS V13.00,2013-03-16 02:19:00,
2013-03-15 22:24:00,52.7,41.7,30.00,WSW,249,11.0,13.0,66,0.00,,SKC,0.00,VWS V13.00,2013-03-16 02:24:00,
2013-03-15 22:29:00,52.7,41.7,30.00,West,260,9.0,15.0,66,0.00,,SKC,0.00,VWS V13.00,2013-03-16 02:29:00,
2013-03-15 22:34:00,52.8,41.8,30.00,West,259,7.0,15.0,66,0.00,,SKC,0.00,VWS V13.00,2013-03-16 02:34:00,
2013-03-15 22:39:00,52.9,42.3,30.00,SW,221,16.0,16.0,67,0.00,,SKC,0.00,VWS V13.00,2013-03-16 02:39:00,
2013-03-15 22:44:00,53.0,42.3,30.00,WSW,250,8.0,18.0,67,0.00,,SKC,0.00,VWS V13.00,2013-03-16 02:44:00,
2013-03-15 22:49:00,53.0,42.3,30.00,WNW,283,10.0,16.0,67,0.00,,SKC,0.00,VWS V13.00,2013-03-16 02:49:00,
2013-03-15 22:54:00,53.1,42.5,30.00,West,279,7.0,15.0,67,0.00,,SKC,0.00,VWS V13.00,2013-03-16 02:54:00,
2013-03-15 22:59:00,53.1,42.5,30.00,SW,215,5.0,14.0,67,0.00,,SKC,0.00,VWS V13.00,2013-03-16 02:59:00,
2013-03-15 23:04:00,53.2,42.5,30.00,SW,216,9.0,17.0,67,0.00,,SKC,0.00,VWS V13.00,2013-03-16 03:04:00,
2013-03-15 23:09:00,53.3,42.6,30.00,SW,225,13.0,19.0,67,0.00,,SKC,0.00,VWS V13.00,2013-03-16 03:09:00,
2013-03-15 23:14:00,53.4,42.7,29.99,WSW,254,7.0,18.0,67,0.00,,SKC,0.00,VWS V13.00,2013-03-16 03:14:00,
2013-03-15 23:19:00,53.4,42.7,29.99,SSW,205,6.0,11.0,67,0.00,,SKC,0.00,VWS V13.00,2013-03-16 03:19:00,
2013-03-15 23:24:00,53.5,43.2,29.99,WSW,242,10.0,13.0,68,0.00,,SKC,0.00,VWS V13.00,2013-03-16 03:24:00,
2013-03-15 23:29:00,53.5,43.2,29.99,SW,235,7.0,19.0,68,0.00,,SKC,0.00,VWS V13.00,2013-03-16 03:29:00,
2013-03-15 23:34:00,53.6,43.3,29.99,SSW,204,6.0,14.0,68,0.00,,SKC,0.00,VWS V13.00,2013-03-16 03:34:00,
2013-03-15 23:39:00,53.6,43.3,29.99,SW,236,5.0,16.0,68,0.00,,SKC,0.00,VWS V13.00,2013-03-16 03:39:00,
2013-03-15 23:44:00,53.7,43.4,29.99,SSW,200,9.0,16.0,68,0.00,,SKC,0.00,VWS V13.00,2013-03-16 03:44:00,
2013-03-15 23:49:00,53.7,43.4,29.98,West,259,7.0,16.0,68,0.00,,SKC,0.00,VWS V13.00,2013-03-16 03:49:00,
2013-03-15 23:54:00,53.6,43.3,29.98,West,269,5.0,17.0,68,0.00,,SKC,0.00,VWS V13.00,2013-03-16 03:54:00,
2013-03-15 23:59:00,53.7,43.4,29.98,WSW,256,10.0,16.0,68,0.00,,SKC,0.00,VWS V13.00,2013-03-16 03:59:00,